Weather in Matveyevka

Russia / Orenburg Oblast     52°09′20″N   53°17′03″E
temp.,
°C
wind,
m/s
gust,
m/s
humid.,
%
clouds,
%
prec.,
mm/h
press.,
hPa
HPBL,
m
28 february, sun
sun2823:000sw5998100 0.4 1000434
02:000sw5898100 0.6 998416
05:00−1sw4798100 1.8 998288
08:00−3wnw4698100 0.8 999217
11:00−10nw589597 0.9 1001233
14:00−10nw689496 0.1 1003325
17:00−11wnw6109398 0.3 1006372
20:00−13wnw599499 0.1 1009274
1 march, mon
mon123:00−14wnw589594 0.3 1012227
02:00−15wnw479696 0.2 1014187
05:00−15wnw469698 0.3 1015176
08:00−16wnw4797100 0.2 1017155
11:00−15nw459595 0.3 1019241
14:00−13wnw459498 0.1 1020318
17:00−14wnw469499 0.1 1021304
20:00−19wnw469895 0.0 102291
2 march, tue
tue223:00−21wnw349997 0.1 102353
02:00−22w339822 0.0 102227
05:00−22sw349811 0.0 102137
08:00−21ssw479921 0.0 1019125
11:00−17ssw7129759 0.0 1017270
14:00−13ssw91494100 0.0 1014397
17:00−9ssw91592100 0.3 1011629
20:00−5ssw81594100 0.6 1007823
3 march, wed
wed323:00−3ssw81594100 1.2 1005684
02:00−3ssw71394100 0.6 1002569
05:00−3sw6129599 1.0 1001411
08:00−3wsw4896100 0.6 1000246
11:00−3w479597 0.8 1001300
14:00−3w4696100 0.4 1002355
17:00−2wnw4795100 0.7 1003528
20:00−3wnw4897100 0.8 1004339
4 march, thu
thu423:00−5nw3796100 1.1 1006259
02:00−6wnw489799 0.1 1007163
05:00−7wnw499697 0.3 1009213
08:00−8nw599694 0.1 1011258
11:00−9nw589596 0.2 1013307
14:00−8wnw579499 0.0 1015334
17:00−7wsw599289 0.0 1016380
20:00−11sw6129432 0.0 1016244